GW5329 Weather Reports


time (UTC)temp
C
wind
direction
speed
KPH
gust
KPH
rain 1hr
cm
rain 24hr
cm
rain mn
cm
humidity
%
barometer
mb
20260507083905 9 55 0.0 20.9 0.05 0.00 0.10 95 321.4
20260507082333 9 55 0.0 20.9 0.00 0.00 0.05 95 321.5
20260507081831 9 55 0.0 20.9 0.00 0.00 0.05 95 321.5
20260507081332 9 55 0.0 20.9 0.00 0.00 0.05 95 321.5
20260507080830 9 55 0.0 20.9 0.00 0.00 0.05 95 321.5
20260507080329 9 55 0.0 20.9 0.00 0.00 0.05 94 321.4
20260507075829 9 55 0.0 20.9 0.00 0.00 0.03 95 321.3
20260507075327 9 55 0.0 20.9 0.00 0.00 0.03 95 321.9
20260507074827 9 55 0.0 20.9 0.00 0.00 0.03 95 321.9
20260507073811 10 55 0.0 20.9 0.00 0.00 0.03 95 321.6
20260507073310 10 55 0.0 20.9 0.00 0.00 0.03 95 321.5
20260507072809 10 55 0.0 20.9 0.00 0.00 0.03 95 321.2
20260507072308 10 55 0.0 20.9 0.00 0.00 0.03 95 320.1
20260507071808 10 55 0.0 20.9 0.00 0.00 0.03 95 318.9
20260507071307 10 55 0.0 20.9 0.00 0.00 0.03 95 317.0
20260507070806 10 53 0.0 20.9 0.00 0.00 0.03 95 313.6
20260507070305 10 53 0.0 20.9 0.00 0.00 0.03 95 313.5
20260507065248 10 53 0.0 20.9 0.00 0.00 0.03 95 314.9
20260507064747 10 53 0.0 20.9 0.00 0.00 0.03 95 315.0
20260507064246 10 53 0.0 20.9 0.00 0.00 0.03 95 314.9
20260507063745 10 53 0.0 20.9 0.00 0.00 0.03 94 314.8
20260507063244 10 53 0.0 20.9 0.00 0.00 0.03 94 314.7
20260507062744 10 53 0.0 20.9 0.00 0.00 0.03 94 314.6
20260507062243 10 53 0.0 20.9 0.00 0.00 0.03 94 314.3
20260507061742 10 53 0.0 20.9 0.00 0.00 0.03 94 313.6
20260507061241 10 53 0.0 20.9 0.00 0.00 0.03 94 312.7
20260507060740 10 53 0.0 20.9 0.00 0.00 0.03 94 311.3
20260507055723 10 47 0.0 20.9 0.00 0.00 0.03 95 307.9
20260507054706 10 48 0.0 20.9 0.00 0.00 0.03 94 332.1
20260507054205 10 67 0.0 20.9 0.00 0.00 0.03 94 366.7
20260507053148 10 71 0.0 20.9 0.00 0.00 0.03 94 374.8
20260507052647 10 75 0.0 20.9 0.00 0.00 0.03 94 378.8
20260507052146 10 75 0.0 20.9 0.00 0.00 0.03 94 376.8
20260507051645 10 74 0.0 20.9 0.00 0.00 0.03 94 373.0
20260507051144 11 74 0.0 20.9 0.03 0.00 0.03 94 366.6
20260507050643 11 75 0.0 20.9 0.03 0.00 0.03 94 353.3
20260507050142 11 55 0.0 20.9 0.03 0.00 0.03 94 322.0
20260507045641 11 54 0.0 20.9 0.08 0.00 0.03 94 321.7
20260507045140 11 54 0.0 20.9 0.08 0.00 0.03 94 322.7
20260507044639 11 54 0.0 20.9 0.08 0.00 0.03 93 324.6
20260507044138 11 54 0.0 20.9 0.08 0.00 0.03 93 328.8
20260507043637 11 54 0.0 20.9 0.10 0.00 0.03 93 336.5
20260507043136 11 54 0.0 20.9 0.13 0.00 0.03 93 350.9
20260507042635 12 54 0.0 20.9 0.13 0.00 0.03 93 377.9
20260507041618 12 100 0.0 20.9 0.13 0.00 0.03 95 458.3
20260507041117 12 100 0.0 20.9 0.10 0.00 0.00 95 460.2
20260507040616 12 101 0.0 20.9 0.10 0.00 0.00 95 460.5
20260507040115 12 101 0.0 20.9 0.10 0.00 0.00 95 460.2
20260507035614 12 101 0.0 20.9 0.10 0.00 0.36 94 460.3
20260507034558 12 101 0.0 20.9 0.05 0.00 0.30 94 461.3
20260507034057 12 101 0.0 20.9 0.05 0.00 0.30 94 461.8
20260507033557 12 102 0.0 20.9 0.05 0.00 0.30 94 463.1
20260507033056 13 102 0.0 20.9 0.03 0.00 0.28 94 463.9
20260507032555 13 102 0.0 20.9 0.00 0.00 0.23 94 465.0
20260507032054 13 102 0.0 20.9 0.00 0.00 0.23 94 466.1
20260507031553 13 102 0.0 20.9 0.00 0.00 0.23 94 467.8
20260507031052 13 102 0.0 20.9 0.00 0.00 0.23 94 470.2
20260507030035 13 103 0.0 20.9 0.00 0.00 0.23 94 483.5
20260507025534 13 106 0.0 20.9 0.00 0.00 0.23 94 498.1
20260507025033 14 105 0.0 20.9 0.00 0.00 0.23 95 519.0
20260507024532 14 105 0.0 20.9 0.00 0.00 0.23 96 563.9
20260507024031 14 106 0.0 20.9 0.00 0.00 0.23 96 656.9
20260507023531 14 201 0.0 20.9 0.00 0.00 0.23 96 760.5
20260507023030 14 201 0.0 20.9 0.00 0.00 0.23 96 760.0
20260507022529 14 202 0.0 20.9 0.00 0.00 0.23 96 762.1
20260507022029 14 202 0.0 20.9 0.00 0.00 0.23 96 761.2
20260507021528 14 202 0.0 20.9 0.00 0.00 0.23 96 760.7
20260507021027 14 202 1.6 20.9 0.00 0.00 0.23 96 759.7
20260507020526 14 201 0.0 20.9 0.00 0.00 0.23 96 760.0
20260507020025 13 201 0.0 20.9 0.00 0.00 0.23 96 760.7
20260507015524 13 200 0.0 20.9 0.00 0.00 0.23 96 760.8
20260507015023 13 201 0.0 20.9 0.00 0.00 0.23 96 762.7
20260507014522 13 203 0.0 20.9 0.00 0.00 0.23 96 765.8
20260507014021 13 203 0.0 20.9 0.00 0.00 0.23 96 767.6
20260507013520 13 204 0.0 20.9 0.00 0.00 0.23 96 770.2
20260507012504 13 207 1.6 20.9 0.00 0.00 0.23 96 777.9
20260507012003 13 207 0.0 20.9 0.00 0.00 0.23 96 777.0
20260507011502 13 207 0.0 20.9 0.00 0.00 0.23 96 776.2
20260507011001 13 206 1.6 20.9 0.00 0.00 0.23 96 776.7
20260507010500 13 206 0.0 20.9 0.00 0.00 0.23 95 778.9
20260507005959 13 208 0.0 20.9 0.00 0.00 0.23 95 780.4
20260507005458 13 207 1.6 20.9 0.00 0.00 0.23 96 781.6
20260507004957 13 207 1.6 20.9 0.00 0.00 0.23 95 787.4
20260507003940 13 211 1.6 20.9 0.00 0.00 0.23 95 772.8
20260507003439 13 218 0.0 20.9 0.00 0.00 0.23 95 754.8
20260507002938 13 162 1.6 20.9 0.00 0.00 0.23 95 692.9
20260507002437 13 157 1.6 20.9 0.00 0.00 0.23 95 737.8
20260507001420 13 204 1.6 20.9 0.00 0.00 0.23 95 780.6
20260507000919 13 206 0.0 20.9 0.00 0.00 0.23 95 785.9
20260507000420 13 212 1.6 20.9 0.00 0.00 0.23 95 797.4
20260506235918 13 213 1.6 20.9 0.00 0.00 0.23 95 803.0
20260506235417 13 223 0.0 20.9 0.00 0.00 0.23 95 803.3
20260506234916 13 224 0.0 20.9 0.00 0.00 0.23 95 779.8
20260506234415 13 190 0.0 20.9 0.00 0.00 0.23 95 740.5
20260506233914 13 198 3.2 20.9 0.00 0.00 0.23 94 743.0
20260506233415 13 197 0.0 20.9 0.00 0.00 0.23 94 735.5
20260506232913 13 183 0.0 20.9 0.00 0.00 0.23 94 737.7
20260506232412 14 200 1.6 20.9 0.03 0.00 0.23 94 772.1
20260506231911 14 207 1.6 20.9 0.03 0.00 0.23 94 769.0
20260506231410 14 197 1.6 20.9 0.03 0.00 0.23 94 757.9
20260506230909 14 194 3.2 20.9 0.03 0.00 0.23 94 768.8
20260506230408 14 207 0.0 20.9 0.05 0.00 0.23 94 794.7
20260506225908 14 210 0.0 20.9 0.05 0.00 0.23 94 810.3
20260506225407 14 207 3.2 20.9 0.05 0.00 0.23 94 835.8
20260506224907 14 248 3.2 20.9 0.03 0.00 0.23 94 889.1
20260506224407 14 256 1.6 20.9 0.03 0.00 0.23 94 898.9
20260506223350 14 206 1.6 20.9 0.08 0.00 0.23 94 797.9
20260506222849 14 216 0.0 20.9 0.08 0.00 0.23 94 825.2
20260506221316 14 189 3.2 20.9 0.03 0.00 0.20 94 769.6
20260506220815 14 212 3.2 20.9 0.08 0.00 0.20 94 801.9
20260506220315 14 209 0.0 20.9 0.05 0.00 0.18 94 817.2
20260506215814 14 252 3.2 20.9 0.08 0.00 0.18 94 835.6
20260506215312 14 214 0.0 20.9 0.08 0.00 0.18 94 786.7
20260506214812 14 164 3.2 20.9 0.08 0.00 0.18 94 782.2
20260506214310 14 234 1.6 20.9 0.08 0.00 0.18 94 818.9
20260506213254 14 223 3.2 20.9 0.03 0.00 0.15 94 827.5
20260506212753 14 225 0.0 20.9 0.03 0.00 0.15 94 835.6
20260506212252 14 239 0.0 20.9 0.03 0.00 0.15 94 824.6
20260506211751 14 200 1.6 20.9 0.03 0.00 0.15 94 771.9
20260506211250 14 203 3.2 20.9 0.03 0.00 0.15 93 789.6
20260506210749 14 221 1.6 20.9 0.00 0.00 0.10 93 809.1
20260506210248 14 211 0.0 20.9 0.00 0.00 0.10 93 806.0
20260506205747 14 206 1.6 20.9 0.00 0.00 0.10 93 818.6
20260506205246 14 213 3.2 20.9 0.00 0.00 0.10 93 847.0
20260506204745 14 259 0.0 20.9 0.00 0.00 0.10 93 851.4
20260506203729 14 192 1.6 20.9 0.00 0.00 0.10 93 747.8
20260506203228 14 199 4.8 20.9 0.00 0.00 0.10 93 775.8
20260506202727 14 184 4.8 20.9 0.00 0.00 0.10 93 803.5
20260506201154 14 217 4.8 20.9 0.00 0.00 0.10 92 795.2
20260506200137 14 183 1.6 20.9 0.03 0.00 0.10 92 761.8
20260506195636 14 198 4.8 20.9 0.05 0.00 0.10 92 784.0
20260506195135 14 218 4.8 20.9 0.05 0.00 0.10 92 775.3
20260506194634 14 169 1.6 20.9 0.05 0.00 0.10 92 740.3
20260506194133 14 199 1.6 20.9 0.05 0.00 0.10 92 783.8
20260506193632 14 207 6.4 20.9 0.05 0.00 0.10 91 787.0
20260506193131 14 200 4.8 17.7 0.08 0.00 0.10 91 781.4
20260506192630 14 209 3.2 17.7 0.10 0.00 0.10 92 779.1
20260506192129 14 215 1.6 17.7 0.10 0.00 0.10 92 777.9
20260506191628 14 214 3.2 17.7 0.10 0.00 0.10 92 779.8
20260506191127 15 206 8.0 17.7 0.10 0.00 0.10 91 751.6
20260506190626 15 207 4.8 17.7 0.08 0.00 0.08 91 784.4
20260506185609 15 210 0.0 17.7 0.08 0.00 0.08 91 790.3
20260506185108 15 213 3.2 17.7 0.05 0.00 0.05 90 797.3
20260506184607 15 220 1.6 17.7 0.05 0.00 0.05 90 792.1
20260506184106 15 214 3.2 17.7 0.05 0.00 0.05 89 780.3
20260506183606 15 191 0.0 17.7 0.05 0.00 0.05 89 766.8
20260506182551 16 215 0.0 17.7 0.03 0.00 0.03 89 794.5
20260506182050 16 216 1.6 17.7 0.00 0.00 0.00 87 792.2
20260506181549 16 216 3.2 17.7 0.00 0.00 0.00 86 785.3
20260506181049 16 216 1.6 17.7 0.00 0.00 0.00 86 772.1
20260506180548 16 203 1.6 17.7 0.00 0.00 0.00 85 741.9
20260506180047 16 194 0.0 17.7 0.00 0.00 0.00 84 732.8
20260506175031 17 193 0.0 17.7 0.00 0.00 0.00 82 727.5
20260506174015 17 199 0.0 17.7 0.00 0.00 0.00 78 763.4
20260506173514 18 210 3.2 17.7 0.00 0.00 0.00 75 785.5
20260506173013 18 208 0.0 17.7 0.00 0.00 0.00 75 791.1
20260506171440 19 281 8.0 20.9 0.00 0.00 0.00 65 845.1
20260506170939 20 223 6.4 17.7 0.00 0.00 0.00 64 819.9
20260506170438 20 221 8.0 19.3 0.00 0.00 0.00 63 816.8
20260506165937 20 208 6.4 19.3 0.00 0.00 0.00 62 821.1
20260506164920 20 224 3.2 22.5 0.00 0.00 0.00 62 827.5
20260506164419 20 222 3.2 19.3 0.00 0.00 0.00 62 815.3
20260506163918 20 208 6.4 19.3 0.00 0.00 0.00 61 784.5
20260506163417 20 207 8.0 19.3 0.00 0.00 0.00 61 785.6
20260506162916 20 188 8.0 19.3 0.00 0.00 0.00 61 798.9
20260506161859 20 201 9.7 22.5 0.00 0.00 0.00 60 786.3
20260506160326 21 213 3.2 19.3 0.00 0.00 0.00 60 792.5
20260506155309 21 194 8.0 29.0 0.00 0.00 0.00 59 802.0
20260506154808 21 221 4.8 19.3 0.00 0.00 0.00 60 858.0
20260506154307 21 245 3.2 22.5 0.00 0.00 0.00 60 808.6
20260506153806 21 190 8.0 22.5 0.00 0.00 0.00 58 762.1
20260506153305 21 207 0.0 22.5 0.00 0.00 0.00 59 778.8
20260506152804 21 224 4.8 22.5 0.00 0.00 0.00 60 792.8
20260506151747 21 228 1.6 17.7 0.00 0.00 0.00 61 818.8
20260506151246 20 230 4.8 17.7 0.00 0.00 0.00 62 868.5
20260506150745 20 220 4.8 17.7 0.00 0.00 0.00 62 783.3
20260506150244 20 193 4.8 17.7 0.00 0.00 0.00 62 792.4
20260506145743 20 236 4.8 17.7 0.00 0.00 0.00 62 823.8
20260506145242 20 225 4.8 17.7 0.00 0.00 0.00 63 809.8
20260506144741 20 232 4.8 17.7 0.00 0.00 0.00 64 796.3
20260506144240 20 198 4.8 17.7 0.00 0.00 0.00 64 765.9
20260506143223 19 145 4.8 24.1 0.00 0.00 0.00 66 741.4
20260506142722 19 208 3.2 24.1 0.00 0.00 0.00 67 830.5
20260506142221 19 232 6.4 17.7 0.00 0.00 0.00 67 867.3
20260506141720 19 271 0.0 17.7 0.00 0.00 0.00 67 907.9
20260506141219 19 290 0.0 17.7 0.00 0.00 0.00 67 833.2
20260506140718 19 167 1.6 17.7 0.00 0.00 0.00 68 728.3
20260506140217 18 202 4.8 17.7 0.00 0.00 0.00 69 758.6
20260506135716 18 186 4.8 17.7 0.00 0.00 0.00 69 794.4
20260506135215 18 260 3.2 17.7 0.00 0.00 0.00 68 837.9
20260506134158 18 210 4.8 19.3 0.00 0.00 0.00 70 782.1
20260506133141 18 220 1.6 17.7 0.00 0.00 0.00 72 804.2
20260506132640 18 245 4.8 19.3 0.00 0.00 0.00 73 790.2
20260506132139 17 215 6.4 19.3 0.00 0.00 0.00 73 775.5
20260506131122 17 196 4.8 17.7 0.00 0.00 0.00 75 766.1
20260506130621 17 213 6.4 20.9 0.00 0.00 0.00 75 768.3
20260506130120 17 187 1.6 20.9 0.00 0.00 0.00 77 808.7
20260506125619 17 240 3.2 20.9 0.00 0.00 0.00 78 825.0
20260506125119 16 201 4.8 20.9 0.00 0.00 0.00 78 787.3
20260506124617 16 219 1.6 20.9 0.00 0.00 0.00 80 789.9
20260506124116 16 209 1.6 20.9 0.00 0.00 0.00 80 789.7
20260506123615 16 202 3.2 20.9 0.00 0.00 0.00 80 788.7
20260506122044 16 256 3.2 20.9 0.00 0.00 0.00 80 820.5
20260506121543 16 217 0.0 20.9 0.00 0.00 0.00 81 776.9
20260506121042 15 205 1.6 20.9 0.00 0.00 0.00 81 759.5
20260506120541 15 210 4.8 20.9 0.00 0.00 0.00 81 759.1
20260506120040 15 172 3.2 20.9 0.00 0.00 0.00 81 728.0
20260506115540 15 208 3.2 20.9 0.00 0.00 0.00 81 757.5
20260506114523 15 213 1.6 20.9 0.00 0.00 0.00 83 703.1
20260506114023 15 150 0.0 20.9 0.00 0.00 0.00 84 673.6
20260506113522 15 167 3.2 20.9 0.00 0.00 0.00 84 742.2
20260506113021 15 205 3.2 20.9 0.00 0.00 0.00 85 767.4
20260506112520 14 205 1.6 20.9 0.00 0.00 0.00 86 783.8
20260506111504 14 208 1.6 20.9 0.00 0.00 0.00 85 800.3
20260506111004 14 214 1.6 20.9 0.00 0.00 0.00 85 786.9
20260506105947 14 230 3.2 20.9 0.00 0.00 0.00 86 799.2
20260506104930 13 243 1.6 20.9 0.00 0.00 0.00 86 851.4
20260506104429 13 228 1.6 20.9 0.00 0.00 0.00 86 845.5
20260506103929 13 243 0.0 20.9 0.00 0.00 0.00 86 860.5
20260506103428 13 245 1.6 20.9 0.00 0.00 0.00 86 853.9
20260506102927 13 227 3.2 20.9 0.00 0.00 0.00 86 872.3
20260506102426 13 272 1.6 20.9 0.00 0.00 0.00 86 866.9
20260506101925 13 225 3.2 20.9 0.00 0.00 0.00 86 805.8
20260506101424 13 216 4.8 20.9 0.00 0.00 0.00 86 780.2
20260506100407 13 202 1.6 20.9 0.00 0.00 0.00 86 776.5
20260506095906 13 212 1.6 20.9 0.00 0.00 0.00 86 782.7
20260506095405 13 207 0.0 20.9 0.00 0.00 0.00 85 774.8
20260506094904 13 208 3.2 20.9 0.00 0.00 0.00 85 764.4
20260506094403 13 224 1.6 20.9 0.00 0.00 0.00 85 773.9
20260506093902 13 183 3.2 20.9 0.00 0.00 0.00 85 727.5
20260506093401 13 173 1.6 20.9 0.00 0.00 0.00 85 759.8
20260506092900 13 244 0.0 20.9 0.00 0.00 0.00 84 848.7
20260506092359 13 224 4.8 20.9 0.00 0.00 0.00 84 804.9
20260506091858 14 201 4.8 20.9 0.00 0.00 0.00 84 781.0
20260506091357 14 214 3.2 20.9 0.00 0.00 0.00 84 788.8
20260506090857 14 213 3.2 20.9 0.00 0.00 0.00 84 776.7
20260506090356 14 210 1.6 17.7 0.00 0.00 0.00 83 803.0
20260506085856 14 220 4.8 17.7 0.00 0.00 0.00 83 827.7
20260506085355 14 225 1.6 17.7 0.00 0.00 0.00 83 824.1
20260506084854 14 232 1.6 17.7 0.00 0.00 0.00 82 810.5
20260506084353 14 206 1.6 17.7 0.00 0.00 0.00 82 783.9